This is the latest recevied weather packets stored in our database for station/object K4DFD-13. If no packets are shown the sender has not sent any weather packets the latest 10 day(s).
| Time | Temp. | Humidity | Pressure | Rain* | Wind** | Luminosity | Snow |
|---|---|---|---|---|---|---|---|
| 1777582842 | 16.67° C | 40% | 1012.2 hPa | 0 mm | - | - | - |
| 1777582541 | 16.67° C | 40% | 1012.1 hPa | 0 mm | - | - | - |
| 1777582241 | 16.67° C | 40% | 1012.3 hPa | 0 mm | - | - | - |
| 1777581941 | 16.67° C | 42% | 1012.2 hPa | 0 mm | - | - | - |
| 1777581640 | 16.67° C | 43% | 1012.1 hPa | 0 mm | - | - | - |
| 1777581340 | 16.67° C | 44% | 1012.1 hPa | 0 mm | - | - | - |
| 1777581040 | 16.11° C | 43% | 1012.1 hPa | 0 mm | - | - | - |
| 1777580739 | 16.67° C | 41% | 1012.1 hPa | 0 mm | - | - | - |
| 1777580439 | 16.67° C | 42% | 1012.1 hPa | 0 mm | - | - | - |
| 1777580139 | 16.11° C | 42% | 1012.1 hPa | 0 mm | - | - | - |
| 1777579838 | 16.11° C | 44% | 1012.2 hPa | 0 mm | - | - | - |
| 1777579538 | 16.11° C | 44% | 1012.3 hPa | 0 mm | - | - | - |
| 1777579238 | 16.67° C | 42% | 1012.3 hPa | 0 mm | - | - | - |
| 1777578937 | 16.67° C | 42% | 1012.1 hPa | 0 mm | - | - | - |
| 1777578637 | 16.67° C | 40% | 1012.2 hPa | 0 mm | - | - | - |
| 1777578337 | 16.67° C | 43% | 1012.2 hPa | 0 mm | - | - | - |
| 1777578037 | 16.11° C | 43% | 1012.1 hPa | 0 mm | - | - | - |
| 1777577736 | 16.67° C | 41% | 1012.2 hPa | 0 mm | - | - | - |
| 1777577436 | 16.67° C | 44% | 1012.2 hPa | 0 mm | - | - | - |
| 1777577136 | 16.67° C | 42% | 1012.2 hPa | 0 mm | - | - | - |
| 1777576835 | 16.11° C | 43% | 1012.1 hPa | 0 mm | - | - | - |
| 1777576535 | 16.11° C | 44% | 1012.2 hPa | 0 mm | - | - | - |
| 1777576234 | 16.67° C | 42% | 1012.2 hPa | 0 mm | - | - | - |
| 1777575934 | 16.67° C | 42% | 1012 hPa | 0 mm | - | - | - |
| 1777575633 | 16.11° C | 43% | 1012 hPa | 0 mm | - | - | - |
* Rain latest hour (hover to see other rain measurements)
** Current wind speed in m/s (hover to see current wind gust speed)